FENGYUN 1C DEB, 32123

Orbit data source: Space-Track

FENGYUN 1C DEB, 32123 is space debris in SSO originally from a launch on Mon, 10 May 1999 UTC launched from the Taiyaun Space Center, China (TSC). Fengyun 1C debris stems from the Chinese weather satellite Fengyun-1C, which was intentionally destroyed by a Chinese anti-satellite missile in 2007. This event dramatically increased the amount of space debris, with thousands of trackable fragments posing hazards to satellites and human spaceflight. The Fengyun 1C debris cloud has become a focal point in discussions about space sustainability and the need for international regulations to prevent the creation of new debris.

Loading next visibility...
Identifier
32123, 1999-025CRR
Orbit
SSO
Country
Flag of CNCN / PRC
Related business
Manufacturer
Unknown
Mission
Spacecraft
Bus & Motor
Unknown
Mass
Unknown
Launch date (UTC)
1999-05-10 (27 years ago)
Launch vehicle
Unknown
Launch site
Taiyaun Space Center, China (TSC)
Object type
Payload
Rocket body
Debris
Shape & HBR
Unknown shape, 0.1 m
Radar Cross Section
Small (<0.1 m²)

Expand to show TLE details & history
Last TLE update: 17 hours ago

TLE from 17 hours ago
0 FENGYUN 1C DEB
1 32123U 99025CRR 26255.02162317  .00000818  00000-0  14660-3 0  9995
2 32123  98.9501  90.4096 0158732 175.5604 337.2416 14.62201174753679
Epoch: 2026-09-12T00:31Z
TLE epoch observation values (Epoch: 2026-09-12T00:31:08.241Z)
Latitude
27.58942°
Longitude
-83.71658°
Altitude
586.339 km
Speed
7.625 km/s
True Right ascension
18h 20m 25s
True Declination
27° 26' 42"
Sunlit
Object was in daylight at epoch
Visualization orbit readout
Latitude
Unknown
Longitude
Unknown
Altitude
Unknown
Speed
Unknown
Apparent Right ascension
Unknown
Apparent Declination
Unknown
Sunlit
N/A
Visualization observer readout
Local Sidereal Time
09:34:01
Azimuth
Unknown
Elevation
Unknown
Doppler factor
Unknown
Orbital elements
Apogee altitude
795.275 km
Perigee altitude
571.103 km
Semi-major axis
7,061.326 km
Eccentricity
0.01587
Inclination
98.9501°
RAAN
90.4096°
Arg. of periapsis
175.5604°
True anomaly
336.52487°
Mean anomaly
337.2416°
Eccentric anomaly
336.88456°
Mean motion
3.65775 °/min
Orbital period
98.42 mins
BSTAR
0.0001466
Loading maneuver chart data...
Computing Atmospheric mass density...
Loading historical data...
Loading historical data...
Loading historical data...
Loading historical data...
Loading historical data...
Loading historical data...
Loading historical data...

Documentation

Showing up to 5 results
|